Location: Beverley
(50.2667°N, 107.9667°W)
Time: 21:26:50
(UTC+00:00)

Envisat - Pass Details

Date: 21 January 2022
Orbit: 764 x 765 km, 98.2° (Epoch: 21 May)

Event Time Altitude Azimuth Distance (km) Brightness Sun altitude
Rises 12:22:10 0° 13° (NNE) 3,243 6.4 -24.8°
Reaches altitude 10° 12:24:28 10° 13° (NNE) 2,313 5.6 -24.4°
Maximum altitude 12:29:35 85° 287° (WNW) 774 2.9 -23.6°
Drops below altitude 10° 12:34:39 10° 198° (SSW) 2,297 5.3 -22.8°
Sets 12:36:57 0° 198° (SSW) 3,219 6.1 -22.4°
